Year,Month,Day,Hour,Minute,Value (Times are PST for temperature in C)
2014,06,30,00,00,14.50
2014,06,30,00,01,14.50
2014,06,30,00,02,14.50
2014,06,30,00,03,14.50
2014,06,30,00,04,14.50
2014,06,30,00,05,14.40
2014,06,30,00,06,14.40
2014,06,30,00,07,14.40
2014,06,30,00,08,14.30
2014,06,30,00,09,14.30
2014,06,30,00,10,14.30
2014,06,30,00,11,14.30
2014,06,30,00,12,14.30
2014,06,30,00,13,14.30
2014,06,30,00,14,14.20
2014,06,30,00,15,14.20
2014,06,30,00,16,14.20
2014,06,30,00,17,14.20
2014,06,30,00,18,14.20
2014,06,30,00,19,14.20
2014,06,30,00,20,14.10
2014,06,30,00,21,14.10
2014,06,30,00,22,14.10
2014,06,30,00,23,14.10
2014,06,30,00,24,14.10
2014,06,30,00,25,14.10
2014,06,30,00,26,14.10
2014,06,30,00,27,14.10
2014,06,30,00,28,14.10
2014,06,30,00,29,14.10
2014,06,30,00,30,14.10
2014,06,30,00,31,14.10
2014,06,30,00,32,14.10
2014,06,30,00,33,14.10
2014,06,30,00,34,14.10
2014,06,30,00,35,14.10
2014,06,30,00,36,14.10
2014,06,30,00,37,14.10
2014,06,30,00,38,14.10
2014,06,30,00,39,14.10
2014,06,30,00,40,14.10
2014,06,30,00,41,14.10
2014,06,30,00,42,14.10
2014,06,30,00,43,14.10
2014,06,30,00,44,14.10
2014,06,30,00,45,14.10
2014,06,30,00,46,14.10
2014,06,30,00,47,14.10
2014,06,30,00,48,14.10
2014,06,30,00,49,14.10
2014,06,30,00,50,14.10
2014,06,30,00,51,14.10
2014,06,30,00,52,14.10
2014,06,30,00,53,14.10
2014,06,30,00,54,14.10
2014,06,30,00,55,14.10
2014,06,30,00,56,14.00
2014,06,30,00,57,14.00
2014,06,30,00,58,14.00
2014,06,30,00,59,14.00
2014,06,30,01,00,14.00
2014,06,30,01,01,14.00
2014,06,30,01,02,14.00
2014,06,30,01,03,14.00
2014,06,30,01,04,14.00
2014,06,30,01,05,13.90
2014,06,30,01,06,13.90
2014,06,30,01,07,13.90
2014,06,30,01,08,13.90
2014,06,30,01,09,13.90
2014,06,30,01,10,13.90
2014,06,30,01,11,13.90
2014,06,30,01,12,13.90
2014,06,30,01,13,13.90
2014,06,30,01,14,13.90
2014,06,30,01,15,13.90
2014,06,30,01,16,13.90
2014,06,30,01,17,13.90
2014,06,30,01,18,13.90
2014,06,30,01,19,13.90
2014,06,30,01,20,13.90
2014,06,30,01,21,13.90
2014,06,30,01,22,13.90
2014,06,30,01,23,13.90
2014,06,30,01,24,13.80
2014,06,30,01,25,13.80
2014,06,30,01,26,13.80
2014,06,30,01,27,13.80
2014,06,30,01,28,13.80
2014,06,30,01,29,13.80
2014,06,30,01,30,13.80
2014,06,30,01,31,13.80
2014,06,30,01,32,13.80
2014,06,30,01,33,13.80
2014,06,30,01,34,13.80
2014,06,30,01,35,13.80
2014,06,30,01,36,13.80
2014,06,30,01,37,13.80
2014,06,30,01,38,13.80
2014,06,30,01,39,13.80
2014,06,30,01,40,13.80
2014,06,30,01,41,13.70
2014,06,30,01,42,13.80
2014,06,30,01,43,13.70
2014,06,30,01,44,13.70
2014,06,30,01,45,13.70
2014,06,30,01,46,13.70
2014,06,30,01,47,13.70
2014,06,30,01,48,13.70
2014,06,30,01,49,13.70
2014,06,30,01,50,13.70
2014,06,30,01,51,13.70
2014,06,30,01,52,13.70
2014,06,30,01,53,13.70
2014,06,30,01,54,13.70
2014,06,30,01,55,13.70
2014,06,30,01,56,13.70
2014,06,30,01,57,13.70
2014,06,30,01,58,13.70
2014,06,30,01,59,13.70
2014,06,30,02,00,13.60
2014,06,30,02,01,13.60
2014,06,30,02,02,13.60
2014,06,30,02,03,13.60
2014,06,30,02,04,13.60
2014,06,30,02,05,13.60
2014,06,30,02,06,13.60
2014,06,30,02,07,13.60
2014,06,30,02,08,13.60
2014,06,30,02,09,13.60
2014,06,30,02,10,13.60
2014,06,30,02,11,13.60
2014,06,30,02,12,13.60
2014,06,30,02,13,13.60
2014,06,30,02,14,13.60
2014,06,30,02,15,13.60
2014,06,30,02,16,13.60
2014,06,30,02,17,13.60
2014,06,30,02,18,13.60
2014,06,30,02,19,13.60
2014,06,30,02,20,13.70
2014,06,30,02,21,13.70
2014,06,30,02,22,13.70
2014,06,30,02,23,13.70
2014,06,30,02,24,13.70
2014,06,30,02,25,13.70
2014,06,30,02,26,13.70
2014,06,30,02,27,13.70
2014,06,30,02,28,13.70
2014,06,30,02,29,13.70
2014,06,30,02,30,13.70
2014,06,30,02,31,13.70
2014,06,30,02,32,13.70
2014,06,30,02,33,13.70
2014,06,30,02,34,13.70
2014,06,30,02,35,13.70
2014,06,30,02,36,13.70
2014,06,30,02,37,13.70
2014,06,30,02,38,13.70
2014,06,30,02,39,13.60
2014,06,30,02,40,13.60
2014,06,30,02,41,13.60
2014,06,30,02,42,13.60
2014,06,30,02,43,13.60
2014,06,30,02,44,13.60
2014,06,30,02,45,13.60
2014,06,30,02,46,13.60
2014,06,30,02,47,13.50
2014,06,30,02,48,13.50
2014,06,30,02,49,13.50
2014,06,30,02,50,13.50
2014,06,30,02,51,13.50
2014,06,30,02,52,13.50
2014,06,30,02,53,13.50
2014,06,30,02,54,13.50
2014,06,30,02,55,13.50
2014,06,30,02,56,13.50
2014,06,30,02,57,13.50
2014,06,30,02,58,13.50
2014,06,30,02,59,13.50
2014,06,30,03,00,13.50
2014,06,30,03,01,13.50
2014,06,30,03,02,13.50
2014,06,30,03,03,13.40
2014,06,30,03,04,13.40
2014,06,30,03,05,13.40
2014,06,30,03,06,13.40
2014,06,30,03,07,13.40
2014,06,30,03,08,13.40
2014,06,30,03,09,13.30
2014,06,30,03,10,13.30
2014,06,30,03,11,13.30
2014,06,30,03,12,13.30
2014,06,30,03,13,13.30
2014,06,30,03,14,13.30
2014,06,30,03,15,13.30
2014,06,30,03,16,13.30
2014,06,30,03,17,13.20
2014,06,30,03,18,13.20
2014,06,30,03,19,13.20
2014,06,30,03,20,13.20
2014,06,30,03,21,13.20
2014,06,30,03,22,13.20
2014,06,30,03,23,13.10
2014,06,30,03,24,13.10
2014,06,30,03,25,13.10
2014,06,30,03,26,13.10
2014,06,30,03,27,13.10
2014,06,30,03,28,13.00
2014,06,30,03,29,13.00
2014,06,30,03,30,13.00
2014,06,30,03,31,12.90
2014,06,30,03,32,12.90
2014,06,30,03,33,12.90
2014,06,30,03,34,12.90
2014,06,30,03,35,12.90
2014,06,30,03,36,12.90
2014,06,30,03,37,12.90
2014,06,30,03,38,12.90
2014,06,30,03,39,12.90
2014,06,30,03,40,12.90
2014,06,30,03,41,12.80
2014,06,30,03,42,12.80
2014,06,30,03,43,12.80
2014,06,30,03,44,12.80
2014,06,30,03,45,12.80
2014,06,30,03,46,12.80
2014,06,30,03,47,12.80
2014,06,30,03,48,12.80
2014,06,30,03,49,12.80
2014,06,30,03,50,12.70
2014,06,30,03,51,12.70
2014,06,30,03,52,12.70
2014,06,30,03,53,12.70
2014,06,30,03,54,12.70
2014,06,30,03,55,12.60
2014,06,30,03,56,12.60
2014,06,30,03,57,12.60
2014,06,30,03,58,12.50
2014,06,30,03,59,12.50
2014,06,30,04,00,12.40
2014,06,30,04,01,12.40
2014,06,30,04,02,12.40
2014,06,30,04,03,12.40
2014,06,30,04,04,12.40
2014,06,30,04,05,12.30
2014,06,30,04,06,12.30
2014,06,30,04,07,12.30
2014,06,30,04,08,12.30
2014,06,30,04,09,12.30
2014,06,30,04,10,12.30
2014,06,30,04,11,12.30
2014,06,30,04,12,12.30
2014,06,30,04,13,12.30
2014,06,30,04,14,12.30
2014,06,30,04,15,12.30
2014,06,30,04,16,12.30
2014,06,30,04,17,12.30
2014,06,30,04,18,12.30
2014,06,30,04,19,12.30
2014,06,30,04,20,12.20
2014,06,30,04,21,12.20
2014,06,30,04,22,12.20
2014,06,30,04,23,12.20
2014,06,30,04,24,12.20
2014,06,30,04,25,12.20
2014,06,30,04,26,12.20
2014,06,30,04,27,12.10
2014,06,30,04,28,12.00
2014,06,30,04,29,12.00
2014,06,30,04,30,11.90
2014,06,30,04,31,11.90
2014,06,30,04,32,11.80
2014,06,30,04,33,11.80
2014,06,30,04,34,11.80
2014,06,30,04,35,11.80
2014,06,30,04,36,11.80
2014,06,30,04,37,11.70
2014,06,30,04,38,11.70
2014,06,30,04,39,11.70
2014,06,30,04,40,11.70
2014,06,30,04,41,11.70
2014,06,30,04,42,11.60
2014,06,30,04,43,11.60
2014,06,30,04,44,11.60
2014,06,30,04,45,11.60
2014,06,30,04,46,11.60
2014,06,30,04,47,11.60
2014,06,30,04,48,11.60
2014,06,30,04,49,11.60
2014,06,30,04,50,11.60
2014,06,30,04,51,11.60
2014,06,30,04,52,11.60
2014,06,30,04,53,11.60
2014,06,30,04,54,11.60
2014,06,30,04,55,11.60
2014,06,30,04,56,11.60
2014,06,30,04,57,11.60
2014,06,30,04,58,11.60
2014,06,30,04,59,11.60
2014,06,30,05,00,11.60
2014,06,30,05,01,11.60
2014,06,30,05,02,11.50
2014,06,30,05,03,11.50
2014,06,30,05,04,11.50
2014,06,30,05,05,11.40
2014,06,30,05,06,11.40
2014,06,30,05,07,11.40
2014,06,30,05,08,11.30
2014,06,30,05,09,11.30
2014,06,30,05,10,11.30
2014,06,30,05,11,11.20
2014,06,30,05,12,11.20
2014,06,30,05,13,11.20
2014,06,30,05,14,11.20
2014,06,30,05,15,11.10
2014,06,30,05,16,11.10
2014,06,30,05,17,11.10
2014,06,30,05,18,11.00
2014,06,30,05,19,11.00
2014,06,30,05,20,10.90
2014,06,30,05,21,10.90
2014,06,30,05,22,10.90
2014,06,30,05,23,10.90
2014,06,30,05,24,10.90
2014,06,30,05,25,10.80
2014,06,30,05,26,10.80
2014,06,30,05,27,10.80
2014,06,30,05,28,10.80
2014,06,30,05,29,10.80
2014,06,30,05,30,10.80
2014,06,30,05,31,10.80
2014,06,30,05,32,10.80
2014,06,30,05,33,10.80
2014,06,30,05,34,10.80
2014,06,30,05,35,10.80
2014,06,30,05,36,10.80
2014,06,30,05,37,10.80
2014,06,30,05,38,10.80
2014,06,30,05,39,10.80
2014,06,30,05,40,10.80
2014,06,30,05,41,10.80
2014,06,30,05,42,10.80
2014,06,30,05,43,10.80
2014,06,30,05,44,10.80
2014,06,30,05,45,10.80
2014,06,30,05,46,10.80
2014,06,30,05,47,10.80
2014,06,30,05,48,10.80
2014,06,30,05,49,10.80
2014,06,30,05,50,10.80
2014,06,30,05,51,10.90
2014,06,30,05,52,10.80
2014,06,30,05,53,10.90
2014,06,30,05,54,10.90
2014,06,30,05,55,10.90
2014,06,30,05,56,10.90
2014,06,30,05,57,10.90
2014,06,30,05,58,10.90
2014,06,30,05,59,10.90
2014,06,30,06,00,10.90
2014,06,30,06,01,10.90
2014,06,30,06,02,10.90
2014,06,30,06,03,10.90
2014,06,30,06,04,10.90
2014,06,30,06,05,10.90
2014,06,30,06,06,10.80
2014,06,30,06,07,10.80
2014,06,30,06,08,10.80
2014,06,30,06,09,10.80
2014,06,30,06,10,10.80
2014,06,30,06,11,10.80
2014,06,30,06,12,10.80
2014,06,30,06,13,10.80
2014,06,30,06,14,10.80
2014,06,30,06,15,10.90
2014,06,30,06,16,10.90
2014,06,30,06,17,10.90
2014,06,30,06,18,10.90
2014,06,30,06,19,10.90
2014,06,30,06,20,10.90
2014,06,30,06,21,10.90
2014,06,30,06,22,10.90
2014,06,30,06,23,10.90
2014,06,30,06,24,10.90
2014,06,30,06,25,10.90
2014,06,30,06,26,10.90
2014,06,30,06,27,11.00
2014,06,30,06,28,11.00
2014,06,30,06,29,11.10
2014,06,30,06,30,11.20
2014,06,30,06,31,11.30
2014,06,30,06,32,11.50
2014,06,30,06,33,11.60
2014,06,30,06,34,11.80
2014,06,30,06,35,11.90
2014,06,30,06,36,11.90
2014,06,30,06,37,12.00
2014,06,30,06,38,12.10
2014,06,30,06,39,12.20
2014,06,30,06,40,12.20
2014,06,30,06,41,12.30
2014,06,30,06,42,12.30
2014,06,30,06,43,12.30
2014,06,30,06,44,12.30
2014,06,30,06,45,12.40
2014,06,30,06,46,12.40
2014,06,30,06,47,12.40
2014,06,30,06,48,12.50
2014,06,30,06,49,12.50
2014,06,30,06,50,12.60
2014,06,30,06,51,12.60
2014,06,30,06,52,12.70
2014,06,30,06,53,12.70
2014,06,30,06,54,12.80
2014,06,30,06,55,12.80
2014,06,30,06,56,12.80
2014,06,30,06,57,12.90
2014,06,30,06,58,12.90
2014,06,30,06,59,12.90
2014,06,30,07,00,13.00
2014,06,30,07,01,13.00
2014,06,30,07,02,13.10
2014,06,30,07,03,13.10
2014,06,30,07,04,13.10
2014,06,30,07,05,13.20
2014,06,30,07,06,13.20
2014,06,30,07,07,13.20
2014,06,30,07,08,13.30
2014,06,30,07,09,13.30
2014,06,30,07,10,13.40
2014,06,30,07,11,13.40
2014,06,30,07,12,13.50
2014,06,30,07,13,13.60
2014,06,30,07,14,13.60
2014,06,30,07,15,13.70
2014,06,30,07,16,13.80
2014,06,30,07,17,13.90
2014,06,30,07,18,14.00
2014,06,30,07,19,14.00
2014,06,30,07,20,14.10
2014,06,30,07,21,14.20
2014,06,30,07,22,14.20
2014,06,30,07,23,14.30
2014,06,30,07,24,14.30
2014,06,30,07,25,14.40
2014,06,30,07,26,14.50
2014,06,30,07,27,14.60
2014,06,30,07,28,14.60
2014,06,30,07,29,14.70
2014,06,30,07,30,14.80
2014,06,30,07,31,14.80
2014,06,30,07,32,14.80
2014,06,30,07,33,14.90
2014,06,30,07,34,15.00
2014,06,30,07,35,15.00
2014,06,30,07,36,15.10
2014,06,30,07,37,15.10
2014,06,30,07,38,15.20
2014,06,30,07,39,15.20
2014,06,30,07,40,15.30
2014,06,30,07,41,15.30
2014,06,30,07,42,15.30
2014,06,30,07,43,15.40
2014,06,30,07,44,15.40
2014,06,30,07,45,15.40
2014,06,30,07,46,15.50
2014,06,30,07,47,15.50
2014,06,30,07,48,15.50
2014,06,30,07,49,15.60
2014,06,30,07,50,15.60
2014,06,30,07,51,15.60
2014,06,30,07,52,15.70
2014,06,30,07,53,15.70
2014,06,30,07,54,15.70
2014,06,30,07,55,15.70
2014,06,30,07,56,15.80
2014,06,30,07,57,15.80
2014,06,30,07,58,15.80
2014,06,30,07,59,15.80
2014,06,30,08,00,15.80
2014,06,30,08,01,15.80
2014,06,30,08,02,15.80
2014,06,30,08,03,15.80
2014,06,30,08,04,15.80
2014,06,30,08,05,15.80
2014,06,30,08,06,15.80
2014,06,30,08,07,15.80
2014,06,30,08,08,15.80
2014,06,30,08,09,15.90
2014,06,30,08,10,15.90
2014,06,30,08,11,15.90
2014,06,30,08,12,15.90
2014,06,30,08,13,16.00
2014,06,30,08,14,16.00
2014,06,30,08,15,16.10
2014,06,30,08,16,16.10
2014,06,30,08,17,16.10
2014,06,30,08,18,16.20
2014,06,30,08,19,16.20
2014,06,30,08,20,16.30
2014,06,30,08,21,16.30
2014,06,30,08,22,16.30
2014,06,30,08,23,16.30
2014,06,30,08,24,16.30
2014,06,30,08,25,16.40
2014,06,30,08,26,16.40
2014,06,30,08,27,16.40
2014,06,30,08,28,16.40
2014,06,30,08,29,16.40
2014,06,30,08,30,16.40
2014,06,30,08,31,16.40
2014,06,30,08,32,16.40
2014,06,30,08,33,16.40
2014,06,30,08,34,16.50
2014,06,30,08,35,16.50
2014,06,30,08,36,16.60
2014,06,30,08,37,16.60
2014,06,30,08,38,16.70
2014,06,30,08,39,16.70
2014,06,30,08,40,16.80
2014,06,30,08,41,16.80
2014,06,30,08,42,16.90
2014,06,30,08,43,17.00
2014,06,30,08,44,17.00
2014,06,30,08,45,17.00
2014,06,30,08,46,17.00
2014,06,30,08,47,17.00
2014,06,30,08,48,17.10
2014,06,30,08,49,17.10
2014,06,30,08,50,17.10
2014,06,30,08,51,17.10
2014,06,30,08,52,17.10
2014,06,30,08,53,17.20
2014,06,30,08,54,17.20
2014,06,30,08,55,17.20
2014,06,30,08,56,17.20
2014,06,30,08,57,17.20
2014,06,30,08,58,17.20
2014,06,30,08,59,17.20
2014,06,30,09,00,17.20
2014,06,30,09,01,17.20
2014,06,30,09,02,17.20
2014,06,30,09,03,17.20
2014,06,30,09,04,17.20
2014,06,30,09,05,17.20
2014,06,30,09,06,17.20
2014,06,30,09,07,17.20
2014,06,30,09,08,17.20
2014,06,30,09,09,17.20
2014,06,30,09,10,17.20
2014,06,30,09,11,17.10
2014,06,30,09,12,17.10
2014,06,30,09,13,17.10
2014,06,30,09,14,17.10
2014,06,30,09,15,17.20
2014,06,30,09,16,17.20
2014,06,30,09,17,17.20
2014,06,30,09,18,17.20
2014,06,30,09,19,17.30
2014,06,30,09,20,17.30
2014,06,30,09,21,17.30
2014,06,30,09,22,17.30
2014,06,30,09,23,17.40
2014,06,30,09,24,17.40
2014,06,30,09,25,17.40
2014,06,30,09,26,17.40
2014,06,30,09,27,17.50
2014,06,30,09,28,17.50
2014,06,30,09,29,17.50
2014,06,30,09,30,17.60
2014,06,30,09,31,17.60
2014,06,30,09,32,17.60
2014,06,30,09,33,17.70
2014,06,30,09,34,17.70
2014,06,30,09,35,17.70
2014,06,30,09,36,17.70
2014,06,30,09,37,17.60
2014,06,30,09,38,17.60
2014,06,30,09,39,17.60
2014,06,30,09,40,17.60
2014,06,30,09,41,17.60
2014,06,30,09,42,17.60
2014,06,30,09,43,17.60
2014,06,30,09,44,17.60
2014,06,30,09,45,17.60
2014,06,30,09,46,17.60
2014,06,30,09,47,17.60
2014,06,30,09,48,17.50
2014,06,30,09,49,17.40
2014,06,30,09,50,17.40
2014,06,30,09,51,17.40
2014,06,30,09,52,17.40
2014,06,30,09,53,17.40
2014,06,30,09,54,17.40
2014,06,30,09,55,17.40
2014,06,30,09,56,17.50
2014,06,30,09,57,17.50
2014,06,30,09,58,17.60
2014,06,30,09,59,17.60
2014,06,30,10,00,17.60
2014,06,30,10,01,17.60
2014,06,30,10,02,17.70
2014,06,30,10,03,17.70
2014,06,30,10,04,17.70
2014,06,30,10,05,17.70
2014,06,30,10,06,17.80
2014,06,30,10,07,17.90
2014,06,30,10,08,18.00
2014,06,30,10,09,18.00
2014,06,30,10,10,17.90
2014,06,30,10,11,17.90
2014,06,30,10,12,18.00
2014,06,30,10,13,18.00
2014,06,30,10,14,18.10
2014,06,30,10,15,18.10
2014,06,30,10,16,18.20
2014,06,30,10,17,18.20
2014,06,30,10,18,18.20
2014,06,30,10,19,18.20
2014,06,30,10,20,18.10
2014,06,30,10,21,18.00
2014,06,30,10,22,18.00
2014,06,30,10,23,17.90
2014,06,30,10,24,17.90
2014,06,30,10,25,17.90
2014,06,30,10,26,17.90
2014,06,30,10,27,17.90
2014,06,30,10,28,17.90
2014,06,30,10,29,17.90
2014,06,30,10,30,17.90
2014,06,30,10,31,17.80
2014,06,30,10,32,17.70
2014,06,30,10,33,17.80
2014,06,30,10,34,17.70
2014,06,30,10,35,17.80
2014,06,30,10,36,17.80
2014,06,30,10,37,17.80
2014,06,30,10,38,17.90
2014,06,30,10,39,17.90
2014,06,30,10,40,18.00
2014,06,30,10,41,18.10
2014,06,30,10,42,18.20
2014,06,30,10,43,18.20
2014,06,30,10,44,18.20
2014,06,30,10,45,18.20
2014,06,30,10,46,18.20
2014,06,30,10,47,18.30
2014,06,30,10,48,18.30
2014,06,30,10,49,18.40
2014,06,30,10,50,18.30
2014,06,30,10,51,18.30
2014,06,30,10,52,18.30
2014,06,30,10,53,18.30
2014,06,30,10,54,18.30
2014,06,30,10,55,18.30
2014,06,30,10,56,18.30
2014,06,30,10,57,18.40
2014,06,30,10,58,18.50
2014,06,30,10,59,18.60
2014,06,30,11,00,18.70
2014,06,30,11,01,18.70
2014,06,30,11,02,18.80
2014,06,30,11,03,18.90
2014,06,30,11,04,18.90
2014,06,30,11,05,18.90
2014,06,30,11,06,18.90
2014,06,30,11,07,18.90
2014,06,30,11,08,18.80
2014,06,30,11,09,18.80
2014,06,30,11,10,18.80
2014,06,30,11,11,18.80
2014,06,30,11,12,18.80
2014,06,30,11,13,18.80
2014,06,30,11,14,18.80
2014,06,30,11,15,18.90
2014,06,30,11,16,18.90
2014,06,30,11,17,19.00
2014,06,30,11,18,19.10
2014,06,30,11,19,19.10
2014,06,30,11,20,19.10
2014,06,30,11,21,19.10
2014,06,30,11,22,19.10
2014,06,30,11,23,19.10
2014,06,30,11,24,19.20
2014,06,30,11,25,19.30
2014,06,30,11,26,19.30
2014,06,30,11,27,19.30
2014,06,30,11,28,19.20
2014,06,30,11,29,19.20
2014,06,30,11,30,19.30
2014,06,30,11,31,19.30
2014,06,30,11,32,19.40
2014,06,30,11,33,19.50
2014,06,30,11,34,19.60
2014,06,30,11,35,19.60
2014,06,30,11,36,19.70
2014,06,30,11,37,19.70
2014,06,30,11,38,19.70
2014,06,30,11,39,19.70
2014,06,30,11,40,19.70
2014,06,30,11,41,19.70
2014,06,30,11,42,19.70
2014,06,30,11,43,19.80
2014,06,30,11,44,19.80
2014,06,30,11,45,19.90
2014,06,30,11,46,20.00
2014,06,30,11,47,20.00
2014,06,30,11,48,20.10
2014,06,30,11,49,20.00
2014,06,30,11,50,20.00
2014,06,30,11,51,20.00
2014,06,30,11,52,20.10
2014,06,30,11,53,20.10
2014,06,30,11,54,20.20
2014,06,30,11,55,20.20
2014,06,30,11,56,20.20
2014,06,30,11,57,20.20
2014,06,30,11,58,20.10
2014,06,30,11,59,20.10
2014,06,30,12,00,20.00
2014,06,30,12,01,19.90
2014,06,30,12,02,19.80
2014,06,30,12,03,19.70
2014,06,30,12,04,19.70
2014,06,30,12,05,19.70
2014,06,30,12,06,19.70
2014,06,30,12,07,19.60
2014,06,30,12,08,19.50
2014,06,30,12,09,19.50
2014,06,30,12,10,19.50
2014,06,30,12,11,19.60
2014,06,30,12,12,19.70
2014,06,30,12,13,19.80
2014,06,30,12,14,19.90
2014,06,30,12,15,19.90
2014,06,30,12,16,19.80
2014,06,30,12,17,19.90
2014,06,30,12,18,19.90
2014,06,30,12,19,19.90
2014,06,30,12,20,19.80
2014,06,30,12,21,19.80
2014,06,30,12,22,19.80
2014,06,30,12,23,19.90
2014,06,30,12,24,19.90
2014,06,30,12,25,19.90
2014,06,30,12,26,19.90
2014,06,30,12,27,19.90
2014,06,30,12,28,19.90
2014,06,30,12,29,19.80
2014,06,30,12,30,19.80
2014,06,30,12,31,19.80
2014,06,30,12,32,19.80
2014,06,30,12,33,19.90
2014,06,30,12,34,19.90
2014,06,30,12,35,19.90
2014,06,30,12,36,19.90
2014,06,30,12,37,20.00
2014,06,30,12,38,20.00
2014,06,30,12,39,20.00
2014,06,30,12,40,20.10
2014,06,30,12,41,20.20
2014,06,30,12,42,20.30
2014,06,30,12,43,20.40
2014,06,30,12,44,20.50
2014,06,30,12,45,20.40
2014,06,30,12,46,20.30
2014,06,30,12,47,20.30
2014,06,30,12,48,20.30
2014,06,30,12,49,20.30
2014,06,30,12,50,20.20
2014,06,30,12,51,20.20
2014,06,30,12,52,20.20
2014,06,30,12,53,20.20
2014,06,30,12,54,20.30
2014,06,30,12,55,20.40
2014,06,30,12,56,20.40
2014,06,30,12,57,20.40
2014,06,30,12,58,20.40
2014,06,30,12,59,20.40
2014,06,30,13,00,20.50
2014,06,30,13,01,20.50
2014,06,30,13,02,20.60
2014,06,30,13,03,20.60
2014,06,30,13,04,20.60
2014,06,30,13,05,20.60
2014,06,30,13,06,20.50
2014,06,30,13,07,20.50
2014,06,30,13,08,20.50
2014,06,30,13,09,20.50
2014,06,30,13,10,20.60
2014,06,30,13,11,20.70
2014,06,30,13,12,20.70
2014,06,30,13,13,20.70
2014,06,30,13,14,20.80
2014,06,30,13,15,20.80
2014,06,30,13,16,20.90
2014,06,30,13,17,20.90
2014,06,30,13,18,20.90
2014,06,30,13,19,20.90
2014,06,30,13,20,20.90
2014,06,30,13,21,20.90
2014,06,30,13,22,21.00
2014,06,30,13,23,21.00
2014,06,30,13,24,21.10
2014,06,30,13,25,21.10
2014,06,30,13,26,21.20
2014,06,30,13,27,21.30
2014,06,30,13,28,21.40
2014,06,30,13,29,21.40
2014,06,30,13,30,21.40
2014,06,30,13,31,21.40
2014,06,30,13,32,21.40
2014,06,30,13,33,21.40
2014,06,30,13,34,21.40
2014,06,30,13,35,21.30
2014,06,30,13,36,21.20
2014,06,30,13,37,21.10
2014,06,30,13,38,21.10
2014,06,30,13,39,21.20
2014,06,30,13,40,21.20
2014,06,30,13,41,21.30
2014,06,30,13,42,21.30
2014,06,30,13,43,21.30
2014,06,30,13,44,21.40
2014,06,30,13,45,21.50
2014,06,30,13,46,21.60
2014,06,30,13,47,21.60
2014,06,30,13,48,21.60
2014,06,30,13,49,21.70
2014,06,30,13,50,21.70
2014,06,30,13,51,21.70
2014,06,30,13,52,21.80
2014,06,30,13,53,21.90
2014,06,30,13,54,22.00
2014,06,30,13,55,22.10
2014,06,30,13,56,22.10
2014,06,30,13,57,22.20
2014,06,30,13,58,22.20
2014,06,30,13,59,22.30
2014,06,30,14,00,22.30
2014,06,30,14,01,22.40
2014,06,30,14,02,22.50
2014,06,30,14,03,22.60
2014,06,30,14,04,22.60
2014,06,30,14,05,22.70
2014,06,30,14,06,22.80
2014,06,30,14,07,23.00
2014,06,30,14,08,23.10
2014,06,30,14,09,23.10
2014,06,30,14,10,23.20
2014,06,30,14,11,23.20
2014,06,30,14,12,23.20
2014,06,30,14,13,23.10
2014,06,30,14,14,23.00
2014,06,30,14,15,22.80
2014,06,30,14,16,22.70
2014,06,30,14,17,22.60
2014,06,30,14,18,22.60
2014,06,30,14,19,22.60
2014,06,30,14,20,22.60
2014,06,30,14,21,22.60
2014,06,30,14,22,22.60
2014,06,30,14,23,22.70
2014,06,30,14,24,22.60
2014,06,30,14,25,22.60
2014,06,30,14,26,22.50
2014,06,30,14,27,22.40
2014,06,30,14,28,22.40
2014,06,30,14,29,22.40
2014,06,30,14,30,22.50
2014,06,30,14,31,22.60
2014,06,30,14,32,22.70
2014,06,30,14,33,22.70
2014,06,30,14,34,22.70
2014,06,30,14,35,22.80
2014,06,30,14,36,22.80
2014,06,30,14,37,22.90
2014,06,30,14,38,23.00
2014,06,30,14,39,23.10
2014,06,30,14,40,23.00
2014,06,30,14,41,22.90
2014,06,30,14,42,22.90
2014,06,30,14,43,22.80
2014,06,30,14,44,22.80
2014,06,30,14,45,22.80
2014,06,30,14,46,22.90
2014,06,30,14,47,22.90
2014,06,30,14,48,22.90
2014,06,30,14,49,22.90
2014,06,30,14,50,22.90
2014,06,30,14,51,22.90
2014,06,30,14,52,23.00
2014,06,30,14,53,23.00
2014,06,30,14,54,23.10
2014,06,30,14,55,23.20
2014,06,30,14,56,23.20
2014,06,30,14,57,23.20
2014,06,30,14,58,23.30
2014,06,30,14,59,23.20
2014,06,30,15,00,23.10
2014,06,30,15,01,23.00
2014,06,30,15,02,23.00
2014,06,30,15,03,22.90
2014,06,30,15,04,22.90
2014,06,30,15,05,22.80
2014,06,30,15,06,22.90
2014,06,30,15,07,22.90
2014,06,30,15,08,23.00
2014,06,30,15,09,23.10
2014,06,30,15,10,23.20
2014,06,30,15,11,23.20
2014,06,30,15,12,23.30
2014,06,30,15,13,23.30
2014,06,30,15,14,23.30
2014,06,30,15,15,23.40
2014,06,30,15,16,23.50
2014,06,30,15,17,23.50
2014,06,30,15,18,23.60
2014,06,30,15,19,23.70
2014,06,30,15,20,23.70
2014,06,30,15,21,23.70
2014,06,30,15,22,23.60
2014,06,30,15,23,23.70
2014,06,30,15,24,23.70
2014,06,30,15,25,23.70
2014,06,30,15,26,23.80
2014,06,30,15,27,23.90
2014,06,30,15,28,23.90
2014,06,30,15,29,24.00
2014,06,30,15,30,24.10
2014,06,30,15,31,24.10
2014,06,30,15,32,24.10
2014,06,30,15,33,24.20
2014,06,30,15,34,24.20
2014,06,30,15,35,24.10
2014,06,30,15,36,24.10
2014,06,30,15,37,24.00
2014,06,30,15,38,24.00
2014,06,30,15,39,24.00
2014,06,30,15,40,23.90
2014,06,30,15,41,23.90
2014,06,30,15,42,24.00
2014,06,30,15,43,24.10
2014,06,30,15,44,24.10
2014,06,30,15,45,24.20
2014,06,30,15,46,24.30
2014,06,30,15,47,24.30
2014,06,30,15,48,24.30
2014,06,30,15,49,24.30
2014,06,30,15,50,24.30
2014,06,30,15,51,24.30
2014,06,30,15,52,24.30
2014,06,30,15,53,24.30
2014,06,30,15,54,24.30
2014,06,30,15,55,24.30
2014,06,30,15,56,24.20
2014,06,30,15,57,24.20
2014,06,30,15,58,24.20
2014,06,30,15,59,24.20
2014,06,30,16,00,24.30
2014,06,30,16,01,24.30
2014,06,30,16,02,24.30
2014,06,30,16,03,24.30
2014,06,30,16,04,24.30
2014,06,30,16,05,24.20
2014,06,30,16,06,24.20
2014,06,30,16,07,24.20
2014,06,30,16,08,24.00
2014,06,30,16,09,24.00
2014,06,30,16,10,23.90
2014,06,30,16,11,23.90
2014,06,30,16,12,23.90
2014,06,30,16,13,23.90
2014,06,30,16,14,23.80
2014,06,30,16,15,23.80
2014,06,30,16,16,23.90
2014,06,30,16,17,23.90
2014,06,30,16,18,23.90
2014,06,30,16,19,23.90
2014,06,30,16,20,23.90
2014,06,30,16,21,23.90
2014,06,30,16,22,24.00
2014,06,30,16,23,24.00
2014,06,30,16,24,24.00
2014,06,30,16,25,24.10
2014,06,30,16,26,24.20
2014,06,30,16,27,24.30
2014,06,30,16,28,24.30
2014,06,30,16,29,24.40
2014,06,30,16,30,24.40
2014,06,30,16,31,24.50
2014,06,30,16,32,24.60
2014,06,30,16,33,24.60
2014,06,30,16,34,24.60
2014,06,30,16,35,24.60
2014,06,30,16,36,24.50
2014,06,30,16,37,24.40
2014,06,30,16,38,24.30
2014,06,30,16,39,24.20
2014,06,30,16,40,24.20
2014,06,30,16,41,24.10
2014,06,30,16,42,24.10
2014,06,30,16,43,24.00
2014,06,30,16,44,24.00
2014,06,30,16,45,24.00
2014,06,30,16,46,24.10
2014,06,30,16,47,24.00
2014,06,30,16,48,24.00
2014,06,30,16,49,24.10
2014,06,30,16,50,24.10
2014,06,30,16,51,24.20
2014,06,30,16,52,24.20
2014,06,30,16,53,24.30
2014,06,30,16,54,24.40
2014,06,30,16,55,24.40
2014,06,30,16,56,24.50
2014,06,30,16,57,24.60
2014,06,30,16,58,24.70
2014,06,30,16,59,24.80
2014,06,30,17,00,24.80
2014,06,30,17,01,24.80
2014,06,30,17,02,24.80
2014,06,30,17,03,24.80
2014,06,30,17,04,24.70
2014,06,30,17,05,24.60
2014,06,30,17,06,24.50
2014,06,30,17,07,24.50
2014,06,30,17,08,24.40
2014,06,30,17,09,24.40
2014,06,30,17,10,24.50
2014,06,30,17,11,24.60
2014,06,30,17,12,24.70
2014,06,30,17,13,24.80
2014,06,30,17,14,24.90
2014,06,30,17,15,24.90
2014,06,30,17,16,25.00
2014,06,30,17,17,25.10
2014,06,30,17,18,25.20
2014,06,30,17,19,25.30